User: anonymous   Login
Location: Ch�teau-Arnoux
(44.0814°N, 6.0027°E)
Time: 02:58:52
(UTC+00:00)
Language:

Cosmos 1802 Rocket - Orbit

View from above orbital plane
View from above orbital plane
View from above satellite
View from above satellite

Ground track
Ground track

The orbit data is extracted from the following two-line orbital elements,

1 17160U 86093B   20021.28717436 +.00000040 +00000-0 +25722-4 0  9990
2 17160 082.9269 080.9565 0039432 028.5542 037.5318 13.74635487662855
Epoch (UTC): 21 January 2020 06:53:31
Eccentricity: 0.0039432
inclination: 82.9269°
perigee height: 954 km
apogee height: 1012 km
right ascension of ascending node: 80.9565°
argument of perigee: 28.5542°
revolutions per day: 13.74635487
mean anomaly at epoch: 37.5318°
orbit number at epoch: 66285

The dashed part of the orbit path shows where the satellite is in the earth's shadow,  

DLR